This is the latest recevied weather packets stored in our database for station/object KF4WSW-13. If no packets are shown the sender has not sent any weather packets the latest 1 day(s).
| Time | Temp. | Humidity | Pressure | Rain* | Wind** | Luminosity | Snow |
|---|---|---|---|---|---|---|---|
| 1778018293 | 25.56° C | 72% | 1012.7 hPa | 0 mm | 1.79 m/s, 308° | 110 W/m² | - |
| 1778017990 | 26.11° C | 73% | 1013.1 hPa | 0 mm | 2.68 m/s, 315° | 138 W/m² | - |
| 1778017688 | 26.11° C | 72% | 1013 hPa | 0 mm | 3.13 m/s, 326° | 169 W/m² | - |
| 1778017385 | 26.11° C | 72% | 1012.9 hPa | 0 mm | 2.24 m/s, 342° | 155 W/m² | - |
| 1778017082 | 26.67° C | 71% | 1012.8 hPa | 0 mm | 2.24 m/s, 325° | 133 W/m² | - |
| 1778016780 | 26.11° C | 69% | 1013 hPa | 0 mm | 1.79 m/s, 308° | 149 W/m² | - |
| 1778016475 | 26.11° C | 70% | 1012.7 hPa | 0 mm | 1.79 m/s, 333° | 141 W/m² | - |
| 1778016173 | 26.67° C | 70% | 1012.9 hPa | 0 mm | 2.24 m/s, 331° | 165 W/m² | - |
| 1778015869 | 26.67° C | 68% | 1012.7 hPa | 0 mm | 1.79 m/s, 267° | 223 W/m² | - |
| 1778015567 | 26.67° C | 66% | 1013 hPa | 0 mm | 1.34 m/s, 339° | 214 W/m² | - |
| 1778015263 | 26.67° C | 68% | 1012.8 hPa | 0 mm | 1.34 m/s, 310° | 213 W/m² | - |
| 1778014960 | 26.67° C | 67% | 1012.8 hPa | 0 mm | 1.34 m/s, 290° | 284 W/m² | - |
| 1778014657 | 26.67° C | 68% | 1012.7 hPa | 0 mm | 2.24 m/s, 292° | 350 W/m² | - |
| 1778014356 | 26.67° C | 68% | 1012.8 hPa | 0 mm | 3.13 m/s, 327° | 294 W/m² | - |
| 1778014051 | 26.67° C | 68% | 1013 hPa | 0 mm | 2.68 m/s, 306° | 419 W/m² | - |
| 1778013749 | 26.67° C | 67% | 1012.8 hPa | 0 mm | 1.79 m/s, 328° | 305 W/m² | - |
| 1778013446 | 27.22° C | 66% | 1012.7 hPa | 0 mm | 1.79 m/s, 340° | 409 W/m² | - |
| 1778013144 | 27.22° C | 66% | 1012.9 hPa | 0 mm | 1.34 m/s, 325° | 422 W/m² | - |
| 1778012839 | 26.67° C | 67% | 1013.1 hPa | 0 mm | 1.34 m/s, 321° | 502 W/m² | - |
| 1778012535 | 26.67° C | 66% | 1012.9 hPa | 0 mm | 2.24 m/s, 318° | 422 W/m² | - |
| 1778012232 | 26.67° C | 68% | 1013.1 hPa | 0 mm | 1.79 m/s, 323° | 385 W/m² | - |
| 1778011930 | 27.22° C | 65% | 1013.1 hPa | 0 mm | 1.34 m/s, 312° | 367 W/m² | - |
| 1778011628 | 27.22° C | 65% | 1013.2 hPa | 0 mm | 0.89 m/s, 285° | 417 W/m² | - |
| 1778011325 | 27.78° C | 64% | 1013.3 hPa | 0 mm | 0.89 m/s, 286° | 380 W/m² | - |
| 1778011020 | 27.78° C | 63% | 1013.2 hPa | 0 mm | 1.34 m/s, 327° | 438 W/m² | - |
* Rain latest hour (hover to see other rain measurements)
** Current wind speed in m/s (hover to see current wind gust speed)